,,,PA_Meas_PMT16A,,PR_Meas_QMR101_102,,RH_Meas_QMH101,,SR_Meas_QMS101,,TA_Meas_QMH101,,GenWind,,GenWind,
date,time,status,PA,status,PR,status,RH,status,SR,status,TA,status,DirAvg,status,SpdAvg,
2009-03-01, 00:00:04,VALID,1003.99,VALID,0,VALID,89.769,VALID,0,VALID,25.2416,VALID,344,VALID,0.396484,
2009-03-01, 00:01:04,VALID,1003.95,VALID,0,VALID,89.9216,VALID,0,VALID,25.2221,VALID,344,VALID,0.583203,
2009-03-01, 00:02:04,VALID,1003.94,VALID,0,VALID,89.9979,VALID,0,VALID,25.2221,VALID,345,VALID,0.230859,
2009-03-01, 00:03:04,VALID,1003.94,VALID,0,VALID,90.1352,VALID,0,VALID,25.2221,VALID,356,VALID,0.814844,
2009-03-01, 00:04:04,VALID,1003.91,VALID,0,VALID,90.1657,VALID,0,VALID,25.2046,VALID,357,VALID,0.286328,
2009-03-01, 00:05:04,VALID,1003.94,VALID,0,VALID,90.2115,VALID,0,VALID,25.1851,VALID,356,VALID,0.629687,
2009-03-01, 00:06:04,VALID,1003.92,VALID,0,VALID,90.2573,VALID,0,VALID,25.1442,VALID,355,VALID,0.554688,
2009-03-01, 00:07:04,VALID,1003.91,VALID,0,VALID,90.4327,VALID,0,VALID,25.1461,VALID,331,VALID,0.392578,
2009-03-01, 00:08:04,VALID,1003.9,VALID,0,VALID,90.5243,VALID,0,VALID,25.1637,VALID,337,VALID,0.267578,
2009-03-01, 00:09:04,VALID,1003.88,VALID,0,VALID,90.5624,VALID,0,VALID,25.1248,VALID,352,VALID,0.780859,
2009-03-01, 00:10:04,VALID,1003.91,VALID,0,VALID,90.4251,VALID,0,VALID,25.1053,VALID,353,VALID,0.885938,
2009-03-01, 00:11:04,VALID,1003.93,VALID,0,VALID,90.0284,VALID,0,VALID,25.0663,VALID,357,VALID,1.26406,
2009-03-01, 00:12:04,VALID,1003.95,VALID,0,VALID,89.8682,VALID,0,VALID,25.0858,VALID,358,VALID,1.08828,
2009-03-01, 00:13:04,VALID,1003.96,VALID,0,VALID,89.7309,VALID,0,VALID,25.1053,VALID,347,VALID,0.729688,
2009-03-01, 00:14:04,VALID,1003.97,VALID,0,VALID,89.5707,VALID,0,VALID,25.1034,VALID,348,VALID,0.136719,
2009-03-01, 00:15:04,VALID,1003.97,VALID,0,VALID,89.5783,VALID,0,VALID,25.1248,VALID,343,VALID,0.402734,
2009-03-01, 00:16:04,VALID,1003.99,VALID,0,VALID,89.5554,VALID,0,VALID,25.1442,VALID,351,VALID,0,
2009-03-01, 00:17:04,VALID,1004.01,VALID,0,VALID,89.5707,VALID,0,VALID,25.1442,VALID,351,VALID,0.0015625,
2009-03-01, 00:18:04,VALID,1004,VALID,0,VALID,89.3571,VALID,0,VALID,25.1229,VALID,350,VALID,0.326562,
2009-03-01, 00:19:04,VALID,1004.01,VALID,0,VALID,89.2655,VALID,0,VALID,25.1442,VALID,350,VALID,0.2125,
2009-03-01, 00:20:04,VALID,1004.01,VALID,0,VALID,89.1587,VALID,0,VALID,25.1637,VALID,351,VALID,0.585547,
2009-03-01, 00:21:04,VALID,1003.99,VALID,0,VALID,89.2045,VALID,0,VALID,25.1442,VALID,352,VALID,0.395312,
2009-03-01, 00:22:04,VALID,1003.99,VALID,0,VALID,89.174,VALID,0,VALID,25.1248,VALID,352,VALID,0.327734,
2009-03-01, 00:23:04,VALID,1003.98,VALID,0,VALID,89.1664,VALID,0,VALID,25.1053,VALID,353,VALID,0.217969,
2009-03-01, 00:24:04,VALID,1003.96,VALID,0,VALID,89.1511,VALID,0,VALID,25.1053,VALID,40,VALID,0.111328,
2009-03-01, 00:25:04,VALID,1003.96,VALID,0,VALID,89.174,VALID,0,VALID,25.1072,VALID,40,VALID,0.166016,
2009-03-01, 00:26:04,VALID,1003.98,VALID,0,VALID,89.174,VALID,0,VALID,25.0663,VALID,40,VALID,0,
2009-03-01, 00:27:04,VALID,1003.95,VALID,0,VALID,89.2198,VALID,0,VALID,25.0663,VALID,40,VALID,0,
2009-03-01, 00:28:04,VALID,1003.92,VALID,0,VALID,89.3189,VALID,0,VALID,25.0274,VALID,40,VALID,0,
2009-03-01, 00:29:04,VALID,1003.94,VALID,0,VALID,89.4257,VALID,0,VALID,25.0274,VALID,40,VALID,0.299219,
2009-03-01, 00:30:04,VALID,1003.91,VALID,0,VALID,89.4791,VALID,0,VALID,25.0469,VALID,40,VALID,0.181641,
2009-03-01, 00:31:04,VALID,1003.89,VALID,0,VALID,89.2503,VALID,0,VALID,24.9866,VALID,349,VALID,0.341016,
2009-03-01, 00:32:04,VALID,1003.83,VALID,0,VALID,89.3494,VALID,0,VALID,25.006,VALID,327,VALID,0.146875,
2009-03-01, 00:33:04,VALID,1003.81,VALID,0,VALID,89.4257,VALID,0,VALID,25.0469,VALID,327,VALID,0.232031,
2009-03-01, 00:34:04,VALID,1003.81,VALID,0,VALID,89.3494,VALID,0,VALID,25.0469,VALID,327,VALID,0.0523437,
2009-03-01, 00:35:04,VALID,1003.76,VALID,0,VALID,89.235,VALID,0,VALID,25.0469,VALID,327,VALID,0.266406,
2009-03-01, 00:36:04,VALID,1003.76,VALID,0,VALID,89.2121,VALID,0,VALID,25.0469,VALID,327,VALID,0.190234,
2009-03-01, 00:37:04,VALID,1003.74,VALID,0,VALID,89.1511,VALID,0,VALID,25.0469,VALID,322,VALID,0.0824219,
2009-03-01, 00:38:04,VALID,1003.73,VALID,0,VALID,89.1892,VALID,0,VALID,25.0663,VALID,322,VALID,0.0140625,
2009-03-01, 00:39:04,VALID,1003.67,VALID,0,VALID,89.0443,VALID,0,VALID,25.0858,VALID,322,VALID,0.0847656,
2009-03-01, 00:40:04,VALID,1003.63,VALID,0,VALID,88.9604,VALID,0,VALID,25.0858,VALID,322,VALID,0.296484,
2009-03-01, 00:41:04,VALID,1003.6,VALID,0,VALID,88.8917,VALID,0,VALID,25.1053,VALID,322,VALID,0.301953,
2009-03-01, 00:42:04,VALID,1003.6,VALID,0,VALID,88.7773,VALID,0,VALID,25.1053,VALID,322,VALID,0.351172,
2009-03-01, 00:43:04,VALID,1003.56,VALID,0,VALID,89.0138,VALID,0,VALID,25.1053,VALID,322,VALID,0.382813,
2009-03-01, 00:44:04,VALID,1003.53,VALID,0,VALID,89.2426,VALID,0,VALID,25.0663,VALID,322,VALID,0.437891,
2009-03-01, 00:45:04,VALID,1003.48,VALID,0,VALID,89.7614,VALID,0,VALID,25.0663,VALID,322,VALID,0.387891,
2009-03-01, 00:46:04,VALID,1003.49,VALID,0,VALID,89.9979,VALID,0,VALID,25.0255,VALID,323,VALID,0.55625,
2009-03-01, 00:47:04,VALID,1003.45,VALID,0,VALID,89.9826,VALID,0,VALID,24.9885,VALID,323,VALID,0.499219,
2009-03-01, 00:48:04,VALID,1003.42,VALID,0,VALID,89.9674,VALID,0,VALID,24.9495,VALID,323,VALID,0.184766,
2009-03-01, 00:49:04,VALID,1003.42,VALID,0,VALID,90.242,VALID,0,VALID,24.93,VALID,323,VALID,0.0015625,
2009-03-01, 00:50:04,VALID,1003.42,VALID,0,VALID,90.3107,VALID,0,VALID,24.93,VALID,323,VALID,0,
2009-03-01, 00:51:04,VALID,1003.38,VALID,0,VALID,90.4556,VALID,0,VALID,24.93,VALID,323,VALID,0.102344,
2009-03-01, 00:52:04,VALID,1003.36,VALID,0,VALID,90.5319,VALID,0,VALID,24.93,VALID,323,VALID,0.195703,
2009-03-01, 00:53:04,VALID,1003.35,VALID,0,VALID,90.5243,VALID,0,VALID,24.9106,VALID,323,VALID,0,
2009-03-01, 00:54:04,VALID,1003.34,VALID,0,VALID,90.509,VALID,0,VALID,24.8697,VALID,323,VALID,0,
2009-03-01, 00:55:04,VALID,1003.31,VALID,0,VALID,90.5548,VALID,0,VALID,24.9106,VALID,323,VALID,0.170312,
2009-03-01, 00:56:04,VALID,1003.26,VALID,0,VALID,90.6464,VALID,0,VALID,24.8911,VALID,323,VALID,0.146484,
2009-03-01, 00:57:04,VALID,1003.28,VALID,0,VALID,90.6769,VALID,0,VALID,24.8911,VALID,323,VALID,0.0839844,
2009-03-01, 00:58:04,VALID,1003.25,VALID,0,VALID,90.7608,VALID,0.100563,VALID,24.8911,VALID,323,VALID,0.0382813,
2009-03-01, 00:59:04,VALID,1003.21,VALID,0,VALID,90.9668,VALID,0.100563,VALID,24.8892,VALID,323,VALID,0.548437,
2009-03-01, 01:00:04,VALID,1003.2,VALID,0,VALID,90.8829,VALID,0,VALID,24.8716,VALID,324,VALID,0.570703,
2009-03-01, 01:01:04,VALID,1003.2,VALID,0,VALID,90.8981,VALID,0,VALID,24.8327,VALID,334,VALID,0.189844,
2009-03-01, 01:02:04,VALID,1003.19,VALID,0,VALID,91.0431,VALID,0,VALID,24.8327,VALID,334,VALID,0.116797,
2009-03-01, 01:03:04,VALID,1003.2,VALID,0,VALID,91.2185,VALID,0,VALID,24.7919,VALID,334,VALID,0.182812,
2009-03-01, 01:04:04,VALID,1003.21,VALID,0,VALID,90.8752,VALID,0.100563,VALID,24.8151,VALID,293,VALID,0.496875,
2009-03-01, 01:05:04,VALID,1003.22,VALID,0,VALID,90.8981,VALID,0,VALID,24.7919,VALID,293,VALID,0.105859,
2009-03-01, 01:06:04,VALID,1003.2,VALID,0,VALID,90.6006,VALID,0.100563,VALID,24.8113,VALID,294,VALID,0.884375,
2009-03-01, 01:07:04,VALID,1003.21,VALID,0,VALID,90.5701,VALID,0.100563,VALID,24.8716,VALID,318,VALID,0.490234,
2009-03-01, 01:08:04,VALID,1003.2,VALID,0,VALID,90.3488,VALID,0,VALID,24.8697,VALID,296,VALID,0.124219,
2009-03-01, 01:09:04,VALID,1003.15,VALID,0,VALID,90.2573,VALID,0,VALID,24.93,VALID,325,VALID,0.353906,
2009-03-01, 01:10:04,VALID,1003.17,VALID,0,VALID,89.8987,VALID,0,VALID,24.9282,VALID,334,VALID,0.551172,
2009-03-01, 01:11:04,VALID,1003.18,VALID,0,VALID,89.9369,VALID,0,VALID,24.9671,VALID,336,VALID,0.498047,
2009-03-01, 01:12:04,VALID,1003.18,VALID,0,VALID,89.8758,VALID,0.100563,VALID,24.9671,VALID,337,VALID,0.0335938,
2009-03-01, 01:13:04,VALID,1003.17,VALID,0,VALID,89.9292,VALID,0,VALID,24.9671,VALID,337,VALID,0.0492188,
2009-03-01, 01:14:04,VALID,1003.18,VALID,0,VALID,90.0666,VALID,0,VALID,24.969,VALID,337,VALID,0.0921875,
2009-03-01, 01:15:04,VALID,1003.18,VALID,0,VALID,90.2039,VALID,0,VALID,24.969,VALID,337,VALID,0,
2009-03-01, 01:16:04,VALID,1003.19,VALID,0,VALID,90.3259,VALID,0,VALID,24.969,VALID,337,VALID,0.185547,
2009-03-01, 01:17:04,VALID,1003.19,VALID,0,VALID,90.3717,VALID,0.100563,VALID,24.9476,VALID,337,VALID,0.015625,
2009-03-01, 01:18:04,VALID,1003.18,VALID,0,VALID,90.4633,VALID,0,VALID,24.93,VALID,337,VALID,0,
2009-03-01, 01:19:04,VALID,1003.16,VALID,0,VALID,90.593,VALID,0,VALID,24.93,VALID,337,VALID,0,
2009-03-01, 01:20:04,VALID,1003.16,VALID,0,VALID,90.8066,VALID,0.100563,VALID,24.9282,VALID,337,VALID,0.0765625,
2009-03-01, 01:21:04,VALID,1003.17,VALID,0,VALID,90.9134,VALID,0.100563,VALID,24.93,VALID,337,VALID,0,
2009-03-01, 01:22:04,VALID,1003.19,VALID,0,VALID,91.0812,VALID,0,VALID,24.9087,VALID,337,VALID,0,
2009-03-01, 01:23:04,VALID,1003.19,VALID,0,VALID,91.127,VALID,0,VALID,24.8697,VALID,337,VALID,0,
2009-03-01, 01:24:04,VALID,1003.19,VALID,0,VALID,91.2185,VALID,0.100563,VALID,24.8503,VALID,337,VALID,0,
2009-03-01, 01:25:04,VALID,1003.19,VALID,0,VALID,91.2872,VALID,0,VALID,24.8113,VALID,337,VALID,0.137109,
2009-03-01, 01:26:04,VALID,1003.18,VALID,0,VALID,91.3177,VALID,0,VALID,24.7548,VALID,346,VALID,0.541016,
2009-03-01, 01:27:04,VALID,1003.17,VALID,0,VALID,91.4703,VALID,0,VALID,24.6945,VALID,8,VALID,0.542969,
2009-03-01, 01:28:04,VALID,1003.18,VALID,0,VALID,91.6076,VALID,0,VALID,24.6964,VALID,10,VALID,0.09375,
2009-03-01, 01:29:04,VALID,1003.17,VALID,0,VALID,91.7068,VALID,0,VALID,24.6166,VALID,10,VALID,0.363281,
2009-03-01, 01:30:04,VALID,1003.17,VALID,0,VALID,91.867,VALID,0,VALID,24.6185,VALID,10,VALID,0.344531,
2009-03-01, 01:31:04,VALID,1003.15,VALID,0,VALID,91.9204,VALID,0,VALID,24.599,VALID,28,VALID,0.496484,
2009-03-01, 01:32:04,VALID,1003.15,VALID,0,VALID,92.0501,VALID,0,VALID,24.5777,VALID,43,VALID,0.417969,
2009-03-01, 01:33:04,VALID,1003.12,VALID,0,VALID,92.1187,VALID,0,VALID,24.5796,VALID,45,VALID,0.491406,
2009-03-01, 01:34:04,VALID,1003.09,VALID,0,VALID,92.2027,VALID,0,VALID,24.5777,VALID,46,VALID,0.409766,
2009-03-01, 01:35:04,VALID,1003.11,VALID,0,VALID,92.2866,VALID,0,VALID,24.5582,VALID,46,VALID,0.542969,
2009-03-01, 01:36:04,VALID,1003.1,VALID,0,VALID,92.3934,VALID,0,VALID,24.5601,VALID,46,VALID,0.162109,
2009-03-01, 01:37:04,VALID,1003.06,VALID,0,VALID,92.4468,VALID,0,VALID,24.5582,VALID,46,VALID,0.330469,
2009-03-01, 01:38:04,VALID,1003.06,VALID,0,VALID,92.4849,VALID,0,VALID,24.5388,VALID,46,VALID,0.261719,
2009-03-01, 01:39:04,VALID,1003.02,VALID,0,VALID,92.5612,VALID,0,VALID,24.5406,VALID,46,VALID,0.009375,
2009-03-01, 01:40:04,VALID,1003.03,VALID,0,VALID,92.6299,VALID,0,VALID,24.5212,VALID,46,VALID,0,
2009-03-01, 01:41:04,VALID,1002.98,VALID,0,VALID,92.6985,VALID,0,VALID,24.5017,VALID,46,VALID,0.220703,
2009-03-01, 01:42:04,VALID,1002.97,VALID,0,VALID,92.7672,VALID,0,VALID,24.5017,VALID,46,VALID,0.271875,
2009-03-01, 01:43:04,VALID,1002.95,VALID,0,VALID,92.8435,VALID,0,VALID,24.5017,VALID,46,VALID,0.270703,
2009-03-01, 01:44:04,VALID,1002.93,VALID,0,VALID,92.8969,VALID,0,VALID,24.4822,VALID,46,VALID,0.305859,
2009-03-01, 01:45:04,VALID,1002.91,VALID,0,VALID,92.9579,VALID,0,VALID,24.4628,VALID,61,VALID,0.471094,
2009-03-01, 01:46:04,VALID,1002.9,VALID,0,VALID,93.0113,VALID,0,VALID,24.4628,VALID,61,VALID,0.00546875,
2009-03-01, 01:47:04,VALID,1002.85,VALID,0,VALID,93.08,VALID,0,VALID,24.4628,VALID,61,VALID,0,
2009-03-01, 01:48:04,VALID,1002.82,VALID,0,VALID,93.1181,VALID,0,VALID,24.4433,VALID,61,VALID,0.230078,
2009-03-01, 01:49:04,VALID,1002.8,VALID,0,VALID,93.1334,VALID,0,VALID,24.4433,VALID,63,VALID,0.517578,
2009-03-01, 01:50:04,VALID,1002.75,VALID,0,VALID,93.202,VALID,0,VALID,24.4238,VALID,63,VALID,0.219141,
2009-03-01, 01:51:04,VALID,1002.75,VALID,0,VALID,93.2478,VALID,0,VALID,24.4238,VALID,63,VALID,0.308203,
2009-03-01, 01:52:04,VALID,1002.73,VALID,0.5,VALID,93.2936,VALID,0,VALID,24.4043,VALID,63,VALID,0.120312,
2009-03-01, 01:53:04,VALID,1002.72,VALID,0,VALID,93.347,VALID,0,VALID,24.4043,VALID,63,VALID,0.338281,
2009-03-01, 01:54:04,VALID,1002.7,VALID,0,VALID,93.4004,VALID,0,VALID,24.3849,VALID,63,VALID,0,
2009-03-01, 01:55:04,VALID,1002.67,VALID,0,VALID,93.4385,VALID,0,VALID,24.3636,VALID,63,VALID,0.109766,
2009-03-01, 01:56:04,VALID,1002.65,VALID,0,VALID,93.4462,VALID,0,VALID,24.3849,VALID,63,VALID,0.0972656,
2009-03-01, 01:57:04,VALID,1002.65,VALID,0,VALID,93.4996,VALID,0,VALID,24.3441,VALID,63,VALID,0.0664063,
2009-03-01, 01:58:04,VALID,1002.63,VALID,0,VALID,93.5301,VALID,0,VALID,24.3441,VALID,63,VALID,0,
2009-03-01, 01:59:04,VALID,1002.63,VALID,0,VALID,93.5758,VALID,0,VALID,24.3459,VALID,63,VALID,0,
2009-03-01, 02:00:04,VALID,1002.63,VALID,0,VALID,93.5987,VALID,0,VALID,24.3459,VALID,63,VALID,0.520703,
2009-03-01, 02:01:04,VALID,1002.65,VALID,0,VALID,93.6216,VALID,0,VALID,24.3265,VALID,63,VALID,0.487891,
2009-03-01, 02:02:04,VALID,1002.65,VALID,0,VALID,93.6445,VALID,0,VALID,24.3052,VALID,63,VALID,0.439063,
2009-03-01, 02:03:04,VALID,1002.65,VALID,0,VALID,93.7132,VALID,0,VALID,24.307,VALID,64,VALID,0.307422,
2009-03-01, 02:04:04,VALID,1002.64,VALID,0,VALID,93.7208,VALID,0.100563,VALID,24.3265,VALID,64,VALID,0.569922,
2009-03-01, 02:05:04,VALID,1002.65,VALID,0,VALID,93.7895,VALID,0,VALID,24.307,VALID,64,VALID,0.339453,
2009-03-01, 02:06:04,VALID,1002.65,VALID,0,VALID,93.7895,VALID,0,VALID,24.2875,VALID,64,VALID,0.325391,
2009-03-01, 02:07:04,VALID,1002.67,VALID,0,VALID,93.8276,VALID,0,VALID,24.307,VALID,64,VALID,0.0914062,
2009-03-01, 02:08:04,VALID,1002.64,VALID,0,VALID,93.8886,VALID,0,VALID,24.307,VALID,64,VALID,0.021875,
2009-03-01, 02:09:04,VALID,1002.63,VALID,0,VALID,93.8734,VALID,0,VALID,24.307,VALID,64,VALID,0.137891,
2009-03-01, 02:10:04,VALID,1002.64,VALID,0,VALID,93.881,VALID,0,VALID,24.307,VALID,64,VALID,0.345313,
2009-03-01, 02:11:04,VALID,1002.66,VALID,0,VALID,93.8963,VALID,0,VALID,24.2875,VALID,64,VALID,0.126563,
2009-03-01, 02:12:04,VALID,1002.62,VALID,0,VALID,93.9191,VALID,0,VALID,24.2875,VALID,64,VALID,0.065625,
2009-03-01, 02:13:04,VALID,1002.63,VALID,0,VALID,93.9268,VALID,0,VALID,24.2468,VALID,64,VALID,0.129688,
2009-03-01, 02:14:04,VALID,1002.63,VALID,0,VALID,93.9573,VALID,0,VALID,24.2468,VALID,64,VALID,0.0230469,
2009-03-01, 02:15:04,VALID,1002.63,VALID,0,VALID,93.9725,VALID,0,VALID,24.2875,VALID,64,VALID,0.00078125,
2009-03-01, 02:16:04,VALID,1002.63,VALID,0,VALID,93.9802,VALID,0,VALID,24.2681,VALID,64,VALID,0.160547,
2009-03-01, 02:17:04,VALID,1002.62,VALID,0,VALID,94.0031,VALID,0,VALID,24.2273,VALID,64,VALID,0,
2009-03-01, 02:18:04,VALID,1002.66,VALID,0,VALID,94.0183,VALID,0,VALID,24.2486,VALID,64,VALID,0.00078125,
2009-03-01, 02:19:04,VALID,1002.68,VALID,0,VALID,94.0183,VALID,0,VALID,24.2486,VALID,65,VALID,0.184375,
2009-03-01, 02:20:04,VALID,1002.62,VALID,0,VALID,94.0565,VALID,0,VALID,24.2273,VALID,65,VALID,0.129688,
2009-03-01, 02:21:04,VALID,1002.64,VALID,0,VALID,94.0565,VALID,0,VALID,24.2273,VALID,65,VALID,0.249609,
2009-03-01, 02:22:04,VALID,1002.66,VALID,0,VALID,94.0717,VALID,0,VALID,24.2291,VALID,65,VALID,0.170312,
2009-03-01, 02:23:04,VALID,1002.68,VALID,0,VALID,94.0641,VALID,0,VALID,24.2486,VALID,65,VALID,0.144922,
2009-03-01, 02:24:04,VALID,1002.65,VALID,0,VALID,94.0946,VALID,0,VALID,24.2291,VALID,65,VALID,0.275781,
2009-03-01, 02:25:04,VALID,1002.67,VALID,0,VALID,94.0946,VALID,0,VALID,24.2291,VALID,65,VALID,0,
2009-03-01, 02:26:04,VALID,1002.68,VALID,0,VALID,94.1251,VALID,0,VALID,24.1884,VALID,65,VALID,0.078125,
2009-03-01, 02:27:04,VALID,1002.7,VALID,0,VALID,94.1251,VALID,0,VALID,24.2097,VALID,65,VALID,0.130859,
2009-03-01, 02:28:04,VALID,1002.67,VALID,0,VALID,94.1175,VALID,0,VALID,24.1689,VALID,65,VALID,0.208203,
2009-03-01, 02:29:04,VALID,1002.68,VALID,0.5,VALID,94.1404,VALID,0,VALID,24.1902,VALID,65,VALID,0.0789063,
2009-03-01, 02:30:04,VALID,1002.66,VALID,0,VALID,94.1404,VALID,0,VALID,24.1902,VALID,65,VALID,0,
2009-03-01, 02:31:04,VALID,1002.67,VALID,0,VALID,94.1633,VALID,0,VALID,24.1707,VALID,65,VALID,0,
2009-03-01, 02:32:04,VALID,1002.66,VALID,0,VALID,94.1175,VALID,0,VALID,24.1707,VALID,65,VALID,0,
2009-03-01, 02:33:04,VALID,1002.64,VALID,0,VALID,94.1328,VALID,0,VALID,24.1513,VALID,65,VALID,0,
2009-03-01, 02:34:04,VALID,1002.66,VALID,0,VALID,94.1709,VALID,0,VALID,24.13,VALID,65,VALID,0,
2009-03-01, 02:35:04,VALID,1002.64,VALID,0,VALID,94.1556,VALID,0,VALID,24.1318,VALID,65,VALID,0,
2009-03-01, 02:36:04,VALID,1002.62,VALID,0,VALID,94.1785,VALID,0,VALID,24.1105,VALID,65,VALID,0,
2009-03-01, 02:37:04,VALID,1002.62,VALID,0,VALID,94.1862,VALID,0,VALID,24.1123,VALID,65,VALID,0,
2009-03-01, 02:38:04,VALID,1002.6,VALID,0,VALID,94.1785,VALID,0,VALID,24.1105,VALID,65,VALID,0.0222656,
2009-03-01, 02:39:04,VALID,1002.61,VALID,0,VALID,94.1785,VALID,0,VALID,24.1123,VALID,65,VALID,0,
2009-03-01, 02:40:04,VALID,1002.59,VALID,0,VALID,94.2014,VALID,0,VALID,24.0929,VALID,65,VALID,0,
2009-03-01, 02:41:04,VALID,1002.59,VALID,0,VALID,94.2243,VALID,0.100563,VALID,24.1123,VALID,65,VALID,0,
2009-03-01, 02:42:04,VALID,1002.56,VALID,0,VALID,94.2319,VALID,0,VALID,24.0716,VALID,65,VALID,0,
2009-03-01, 02:43:04,VALID,1002.58,VALID,0,VALID,94.2319,VALID,0.100563,VALID,24.0929,VALID,65,VALID,0,
2009-03-01, 02:44:04,VALID,1002.55,VALID,0,VALID,94.2396,VALID,0,VALID,24.0734,VALID,65,VALID,0,
2009-03-01, 02:45:04,VALID,1002.53,VALID,0,VALID,94.2319,VALID,0,VALID,24.0929,VALID,65,VALID,0,
2009-03-01, 02:46:04,VALID,1002.52,VALID,0,VALID,94.2014,VALID,0,VALID,24.0326,VALID,72,VALID,0.586328,
2009-03-01, 02:47:04,VALID,1002.51,VALID,0,VALID,94.2319,VALID,0,VALID,24.0539,VALID,72,VALID,0.265234,
2009-03-01, 02:48:04,VALID,1002.53,VALID,0,VALID,94.2472,VALID,0,VALID,24.0539,VALID,72,VALID,0.230859,
2009-03-01, 02:49:04,VALID,1002.5,VALID,0,VALID,94.2243,VALID,0,VALID,24.0326,VALID,72,VALID,0.217578,
2009-03-01, 02:50:04,VALID,1002.5,VALID,0,VALID,94.2472,VALID,0,VALID,24.0345,VALID,72,VALID,0.046875,
2009-03-01, 02:51:04,VALID,1002.5,VALID,0,VALID,94.2243,VALID,0,VALID,24.015,VALID,72,VALID,0,
2009-03-01, 02:52:04,VALID,1002.49,VALID,0,VALID,94.2396,VALID,0,VALID,23.9937,VALID,72,VALID,0,
2009-03-01, 02:53:04,VALID,1002.49,VALID,0,VALID,94.2396,VALID,0,VALID,24.015,VALID,72,VALID,0,
2009-03-01, 02:54:04,VALID,1002.48,VALID,0,VALID,94.2701,VALID,0,VALID,24.015,VALID,72,VALID,0.137891,
2009-03-01, 02:55:04,VALID,1002.5,VALID,0,VALID,94.2777,VALID,0,VALID,23.9937,VALID,72,VALID,0.139844,
2009-03-01, 02:56:04,VALID,1002.46,VALID,0,VALID,94.2853,VALID,0,VALID,24.015,VALID,72,VALID,0.0300781,
2009-03-01, 02:57:04,VALID,1002.46,VALID,0,VALID,94.293,VALID,0,VALID,24.015,VALID,72,VALID,0.159766,
2009-03-01, 02:58:04,VALID,1002.47,VALID,0,VALID,94.2853,VALID,0,VALID,24.0345,VALID,72,VALID,0.377734,
2009-03-01, 02:59:04,VALID,1002.46,VALID,0,VALID,94.3235,VALID,0,VALID,24.015,VALID,73,VALID,0.252344,
2009-03-01, 03:00:04,VALID,1002.48,VALID,0,VALID,94.3311,VALID,0,VALID,24.015,VALID,73,VALID,0.163672,
2009-03-01, 03:01:04,VALID,1002.47,VALID,0,VALID,94.3387,VALID,0.100563,VALID,24.015,VALID,73,VALID,0.00859375,
2009-03-01, 03:02:04,VALID,1002.49,VALID,0,VALID,94.3235,VALID,0.100563,VALID,23.9742,VALID,73,VALID,0.280469,
2009-03-01, 03:03:04,VALID,1002.47,VALID,0,VALID,94.3387,VALID,0,VALID,23.9742,VALID,73,VALID,0.252344,
2009-03-01, 03:04:04,VALID,1002.47,VALID,0,VALID,94.354,VALID,0,VALID,23.9548,VALID,73,VALID,0,
2009-03-01, 03:05:04,VALID,1002.45,VALID,0,VALID,94.354,VALID,0,VALID,23.9955,VALID,73,VALID,0,
2009-03-01, 03:06:04,VALID,1002.48,VALID,0,VALID,94.3387,VALID,0,VALID,23.9548,VALID,73,VALID,0,
2009-03-01, 03:07:04,VALID,1002.51,VALID,0,VALID,94.3464,VALID,0,VALID,23.9548,VALID,73,VALID,0,
2009-03-01, 03:08:04,VALID,1002.49,VALID,0,VALID,94.3845,VALID,0,VALID,23.9955,VALID,73,VALID,0,
2009-03-01, 03:09:04,VALID,1002.47,VALID,0,VALID,94.3616,VALID,0,VALID,23.9548,VALID,73,VALID,0,
2009-03-01, 03:10:04,VALID,1002.5,VALID,0,VALID,94.3845,VALID,0,VALID,23.9742,VALID,74,VALID,0.235547,
2009-03-01, 03:11:04,VALID,1002.5,VALID,0,VALID,94.3769,VALID,0,VALID,23.9761,VALID,74,VALID,0.338672,
2009-03-01, 03:12:04,VALID,1002.52,VALID,0,VALID,94.3769,VALID,0,VALID,23.9973,VALID,74,VALID,0.0359375,
2009-03-01, 03:13:04,VALID,1002.5,VALID,0,VALID,94.3845,VALID,0,VALID,24.0168,VALID,74,VALID,0.000390625,
2009-03-01, 03:14:04,VALID,1002.52,VALID,0,VALID,94.3845,VALID,0,VALID,24.0168,VALID,74,VALID,0.00742187,
2009-03-01, 03:15:04,VALID,1002.51,VALID,0,VALID,94.3769,VALID,0,VALID,23.9955,VALID,78,VALID,0.138281,
2009-03-01, 03:16:04,VALID,1002.48,VALID,0,VALID,94.3769,VALID,0,VALID,23.9955,VALID,78,VALID,0.312891,
2009-03-01, 03:17:04,VALID,1002.49,VALID,0,VALID,94.3769,VALID,0,VALID,23.9955,VALID,78,VALID,0.546875,
2009-03-01, 03:18:04,VALID,1002.51,VALID,0,VALID,94.4074,VALID,0,VALID,23.9955,VALID,80,VALID,0.746094,
2009-03-01, 03:19:04,VALID,1002.49,VALID,0,VALID,94.3921,VALID,0,VALID,24.0363,VALID,85,VALID,0.691797,
2009-03-01, 03:20:04,VALID,1002.48,VALID,0,VALID,94.4303,VALID,0,VALID,24.0345,VALID,83,VALID,0.689453,
2009-03-01, 03:21:04,VALID,1002.48,VALID,0,VALID,94.415,VALID,0,VALID,24.0345,VALID,77,VALID,0.707422,
2009-03-01, 03:22:04,VALID,1002.49,VALID,0,VALID,94.4227,VALID,0,VALID,24.0539,VALID,90,VALID,0.520703,
2009-03-01, 03:23:04,VALID,1002.49,VALID,0,VALID,94.4074,VALID,0,VALID,24.0947,VALID,51,VALID,0.623828,
2009-03-01, 03:24:04,VALID,1002.5,VALID,0,VALID,94.3998,VALID,0,VALID,24.0929,VALID,81,VALID,0.702344,
2009-03-01, 03:25:04,VALID,1002.48,VALID,0,VALID,94.3616,VALID,0,VALID,24.1142,VALID,59,VALID,0.679297,
2009-03-01, 03:26:04,VALID,1002.5,VALID,0,VALID,94.3616,VALID,0,VALID,24.1105,VALID,68,VALID,0.580469,
2009-03-01, 03:27:04,VALID,1002.48,VALID,0,VALID,94.354,VALID,0,VALID,24.1123,VALID,96,VALID,0.683203,
2009-03-01, 03:28:04,VALID,1002.52,VALID,0,VALID,94.3387,VALID,0.100563,VALID,24.1318,VALID,76,VALID,0.678125,
2009-03-01, 03:29:04,VALID,1002.49,VALID,0,VALID,94.293,VALID,0,VALID,24.1123,VALID,45,VALID,0.578125,
2009-03-01, 03:30:04,VALID,1002.5,VALID,0,VALID,94.3082,VALID,0,VALID,24.1318,VALID,71,VALID,0.430859,
2009-03-01, 03:31:04,VALID,1002.51,VALID,0,VALID,94.3006,VALID,0,VALID,24.13,VALID,72,VALID,0.346875,
2009-03-01, 03:32:04,VALID,1002.5,VALID,0,VALID,94.2853,VALID,0,VALID,24.1105,VALID,81,VALID,0.404687,
2009-03-01, 03:33:04,VALID,1002.49,VALID,0,VALID,94.2548,VALID,0,VALID,24.1318,VALID,81,VALID,0.184766,
2009-03-01, 03:34:04,VALID,1002.5,VALID,0,VALID,94.2624,VALID,0,VALID,24.1318,VALID,82,VALID,0.0714844,
2009-03-01, 03:35:04,VALID,1002.49,VALID,0,VALID,94.2548,VALID,0.100563,VALID,24.1318,VALID,89,VALID,0.270703,
2009-03-01, 03:36:04,VALID,1002.47,VALID,0,VALID,94.2624,VALID,0,VALID,24.1123,VALID,82,VALID,0.426953,
2009-03-01, 03:37:04,VALID,1002.49,VALID,0,VALID,94.2319,VALID,0,VALID,24.1123,VALID,57,VALID,0.667969,
2009-03-01, 03:38:04,VALID,1002.49,VALID,0,VALID,94.2624,VALID,0,VALID,24.091,VALID,44,VALID,0.0929687,
2009-03-01, 03:39:04,VALID,1002.46,VALID,0,VALID,94.2624,VALID,0,VALID,24.0929,VALID,45,VALID,0.221875,
2009-03-01, 03:40:04,VALID,1002.43,VALID,0.5,VALID,94.2624,VALID,0,VALID,24.0929,VALID,46,VALID,0.314453,
2009-03-01, 03:41:04,VALID,1002.44,VALID,0,VALID,94.2548,VALID,0,VALID,24.0734,VALID,46,VALID,0.2,
2009-03-01, 03:42:04,VALID,1002.45,VALID,0,VALID,94.293,VALID,0,VALID,24.0734,VALID,44,VALID,0.214844,
2009-03-01, 03:43:04,VALID,1002.43,VALID,0,VALID,94.2777,VALID,0,VALID,24.0734,VALID,44,VALID,0.000390625,
2009-03-01, 03:44:04,VALID,1002.45,VALID,0,VALID,94.3082,VALID,0,VALID,24.0521,VALID,44,VALID,0.226953,
2009-03-01, 03:45:04,VALID,1002.43,VALID,0,VALID,94.293,VALID,0,VALID,24.0734,VALID,44,VALID,0.0046875,
2009-03-01, 03:46:04,VALID,1002.4,VALID,0,VALID,94.293,VALID,0,VALID,24.0539,VALID,45,VALID,0.342969,
2009-03-01, 03:47:04,VALID,1002.41,VALID,0,VALID,94.3158,VALID,0,VALID,24.0326,VALID,45,VALID,0.371094,